Time,TemperatureF,DewpointF,PressureIn,WindDirection,WindDirectionDegrees,WindSpeedMPH,WindSpeedGustMPH,Humidity,HourlyPrecipIn,Conditions,Clouds,dailyrainin,SoftwareType,DateUTC
2013-01-07 01:40:00,38.0,-99.9,-100.00,WSW,243,6.0,6.0,-999,-99.99,,,-99.99,,2013-01-07 08:40:00,
2013-01-07 02:23:00,38.0,-99.9,-100.00,WSW,243,6.0,6.0,-999,-99.99,,,-99.99,,2013-01-07 09:23:00,
2013-01-07 02:33:00,38.0,-99.9,-100.00,WSW,243,6.0,6.0,-999,-99.99,,,-99.99,,2013-01-07 09:33:00,
2013-01-07 03:23:00,38.0,-99.9,-100.00,WSW,241,4.0,5.0,-999,-99.99,,,-99.99,,2013-01-07 10:23:00,
2013-01-07 03:33:00,38.0,-99.9,-100.00,WSW,241,4.0,5.0,-999,-99.99,,,-99.99,,2013-01-07 10:33:00,
2013-01-07 06:10:00,38.0,-99.9,-100.00,WSW,251,4.0,4.0,-999,-99.99,,,-99.99,,2013-01-07 13:10:00,
2013-01-07 06:23:00,38.0,-99.9,-100.00,WSW,243,3.0,4.0,-999,-99.99,,,-99.99,,2013-01-07 13:23:00,
2013-01-07 06:33:00,38.0,-99.9,-100.00,WSW,245,4.0,5.0,-999,-99.99,,,-99.99,,2013-01-07 13:33:00,
2013-01-07 06:43:00,38.0,-99.9,-100.00,WSW,245,4.0,5.0,-999,-99.99,,,-99.99,,2013-01-07 13:43:00,
2013-01-07 06:53:00,38.0,-99.9,-100.00,WSW,251,4.0,4.0,-999,-99.99,,,-99.99,,2013-01-07 13:53:00,
2013-01-07 07:03:00,38.0,-99.9,-100.00,WSW,251,4.0,4.0,-999,-99.99,,,-99.99,,2013-01-07 14:03:00,
2013-01-07 07:10:00,38.0,-99.9,-100.00,WSW,245,4.0,4.0,-999,-99.99,,,-99.99,,2013-01-07 14:10:00,
2013-01-07 07:53:00,38.0,-99.9,-100.00,WSW,245,4.0,4.0,-999,-99.99,,,-99.99,,2013-01-07 14:53:00,
2013-01-07 08:03:00,38.0,-99.9,-100.00,WSW,245,4.0,4.0,-999,-99.99,,,-99.99,,2013-01-07 15:03:00,
2013-01-07 08:23:00,38.0,-99.9,-100.00,WSW,257,3.0,5.0,-999,-99.99,,,-99.99,,2013-01-07 15:23:00,
2013-01-07 08:33:00,40.0,-99.9,-100.00,West,276,3.0,4.0,-999,-99.99,,,-99.99,,2013-01-07 15:33:00,
2013-01-07 08:43:00,40.0,-99.9,-100.00,West,276,3.0,4.0,-999,-99.99,,,-99.99,,2013-01-07 15:43:00,
2013-01-07 08:53:00,40.0,-99.9,-100.00,West,276,3.0,4.0,-999,-99.99,,,-99.99,,2013-01-07 15:53:00,
2013-01-07 09:40:00,49.0,-99.9,-100.00,SW,226,4.0,8.0,-999,-99.99,,,-99.99,,2013-01-07 16:40:00,
2013-01-07 10:20:00,51.0,-99.9,-100.00,WSW,237,5.0,7.0,-999,-99.99,,,-99.99,,2013-01-07 17:20:00,
2013-01-07 10:23:00,49.0,-99.9,-100.00,SW,226,4.0,8.0,-999,-99.99,,,-99.99,,2013-01-07 17:23:00,
2013-01-07 10:33:00,49.0,-99.9,-100.00,SW,226,4.0,8.0,-999,-99.99,,,-99.99,,2013-01-07 17:33:00,
2013-01-07 11:03:00,51.0,-99.9,-100.00,WSW,237,5.0,7.0,-999,-99.99,,,-99.99,,2013-01-07 18:03:00,
2013-01-07 11:13:00,51.0,-99.9,-100.00,WSW,237,5.0,7.0,-999,-99.99,,,-99.99,,2013-01-07 18:13:00,
2013-01-07 11:20:00,54.0,-99.9,-100.00,SW,226,6.0,7.0,-999,-99.99,,,-99.99,,2013-01-07 18:20:00,
2013-01-07 12:03:00,54.0,-99.9,-100.00,SW,226,6.0,7.0,-999,-99.99,,,-99.99,,2013-01-07 19:03:00,
2013-01-07 12:13:00,54.0,-99.9,-100.00,SW,226,6.0,7.0,-999,-99.99,,,-99.99,,2013-01-07 19:13:00,
2013-01-07 12:30:00,55.0,-99.9,-100.00,SW,224,3.0,7.0,-999,-99.99,,,-99.99,,2013-01-07 19:30:00,
2013-01-07 12:53:00,54.0,-99.9,-100.00,WSW,237,3.0,7.0,-999,-99.99,,,-99.99,,2013-01-07 19:53:00,
2013-01-07 13:03:00,54.0,-99.9,-100.00,SW,226,5.0,7.0,-999,-99.99,,,-99.99,,2013-01-07 20:03:00,
2013-01-07 13:13:00,54.0,-99.9,-100.00,SW,226,5.0,7.0,-999,-99.99,,,-99.99,,2013-01-07 20:13:00,
2013-01-07 13:23:00,55.0,-99.9,-100.00,SW,224,3.0,7.0,-999,-99.99,,,-99.99,,2013-01-07 20:23:00,
2013-01-07 13:40:00,58.0,-99.9,-100.00,SW,229,4.0,6.0,-999,-99.99,,,-99.99,,2013-01-07 20:40:00,
2013-01-07 13:43:00,57.0,-99.9,-100.00,WSW,245,3.0,6.0,-999,-99.99,,,-99.99,,2013-01-07 20:43:00,
2013-01-07 13:53:00,57.0,-99.9,-100.00,WSW,245,3.0,6.0,-999,-99.99,,,-99.99,,2013-01-07 20:53:00,
2013-01-07 14:23:00,58.0,-99.9,-100.00,SW,229,4.0,6.0,-999,-99.99,,,-99.99,,2013-01-07 21:23:00,
2013-01-07 14:33:00,58.0,-99.9,-100.00,SW,229,4.0,6.0,-999,-99.99,,,-99.99,,2013-01-07 21:33:00,
2013-01-07 15:23:00,57.0,-99.9,-100.00,SSE,162,2.0,6.0,-999,-99.99,,,-99.99,,2013-01-07 22:23:00,
2013-01-07 15:30:00,58.0,-99.9,-100.00,WSW,245,4.0,5.0,-999,-99.99,,,-99.99,,2013-01-07 22:30:00,
2013-01-07 15:33:00,57.0,-99.9,-100.00,SSE,162,2.0,6.0,-999,-99.99,,,-99.99,,2013-01-07 22:33:00,
2013-01-07 16:23:00,58.0,-99.9,-100.00,WSW,245,4.0,5.0,-999,-99.99,,,-99.99,,2013-01-07 23:23:00,
2013-01-07 19:10:00,48.0,-99.9,-100.00,WSW,243,4.0,4.0,-999,-99.99,,,-99.99,,2013-01-08 02:10:00,
2013-01-07 19:23:00,47.0,-99.9,-100.00,SSW,200,3.0,3.0,-999,-99.99,,,-99.99,,2013-01-08 02:23:00,
2013-01-07 19:33:00,48.0,-99.9,-100.00,WSW,240,2.0,4.0,-999,-99.99,,,-99.99,,2013-01-08 02:33:00,
2013-01-07 19:43:00,48.0,-99.9,-100.00,WSW,240,2.0,4.0,-999,-99.99,,,-99.99,,2013-01-08 02:43:00,
2013-01-07 19:53:00,48.0,-99.9,-100.00,WSW,243,4.0,4.0,-999,-99.99,,,-99.99,,2013-01-08 02:53:00,
2013-01-07 20:03:00,48.0,-99.9,-100.00,WSW,243,4.0,4.0,-999,-99.99,,,-99.99,,2013-01-08 03:03:00,
2013-01-07 20:20:00,46.0,-99.9,-100.00,WSW,254,2.0,3.0,-999,-99.99,,,-99.99,,2013-01-08 03:20:00,
2013-01-07 21:00:00,47.0,-99.9,-100.00,SSW,206,1.0,2.0,-999,-99.99,,,-99.99,,2013-01-08 04:00:00,
2013-01-07 21:02:00,46.0,-99.9,-100.00,WSW,254,2.0,3.0,-999,-99.99,,,-99.99,,2013-01-08 04:02:00,
2013-01-07 21:12:00,46.0,-99.9,-100.00,WSW,254,2.0,3.0,-999,-99.99,,,-99.99,,2013-01-08 04:12:00,
2013-01-07 21:50:00,47.0,-99.9,-100.00,WSW,253,4.0,6.0,-999,-99.99,,,-99.99,,2013-01-08 04:50:00,
2013-01-07 21:52:00,47.0,-99.9,-100.00,SSW,206,1.0,2.0,-999,-99.99,,,-99.99,,2013-01-08 04:52:00,
2013-01-07 22:33:00,47.0,-99.9,-100.00,WSW,253,4.0,6.0,-999,-99.99,,,-99.99,,2013-01-08 05:33:00,
2013-01-07 22:43:00,47.0,-99.9,-100.00,WSW,253,4.0,6.0,-999,-99.99,,,-99.99,,2013-01-08 05:43:00,
2013-01-07 23:00:00,45.0,-99.9,-100.00,SW,229,3.0,5.0,-999,-99.99,,,-99.99,,2013-01-08 06:00:00,
2013-01-07 23:53:00,45.0,-99.9,-100.00,SW,229,3.0,5.0,-999,-99.99,,,-99.99,,2013-01-08 06:53:00,